Regional Weather Roundup
Issued by NWS

Home | Current Version | Previous Version | Graphics & Text | Print | Product List | Glossary On
Versions: 1 2 3 4 5 6 7 8 9 10 11 12 13 14 15 16 17 18 19 20 21 22 23 24 25 26 27 28 29 30 31 32 33 34 35 36 37 38 39 40 41 42 43 44 45 46 47 48 49 50
873
ASUS44 KJAN 200303
RWRMS

MISSISSIPPI HOURLY WEATHER ROUNDUP
NATIONAL WEATHER SERVICE JACKSON MS
1000 PM CDT TUE AUG 19 2014

NOTE: "FAIR: INDICATES FEW OR NO CLOUDS BELOW 12,000 FEET WITH NO
SIGNIFICANT WEATHER AND/OR OBSTRUCTIONS TO VISIBILITY.

MSZ001>002-007>008-010>013-018>021-025>028-034>036-200400-
NORTHWEST MISSISSIPPI

CITY           SKY/WX    TMP DP  RH WIND       PRES   REMARKS
CLARKSDALE     FAIR      82  81  94 CALM      29.92R HX  95
CLEVELAND      FAIR      77  74  88 S5        29.92S
GREENWOOD      PTCLDY    78  74  87 CALM      29.93R
GREENVILLE       N/A    N/A N/A N/A MISG      29.92R
GRENADA        FAIR      81  73  78 SW5       29.93S
OLIVE BRANCH   CLEAR     81  81 100 S7        29.91R HX  91
OXFORD         FAIR      81  73  78 CALM      29.94R
TUNICA         CLEAR     81  77  89 S7        29.91S
$$

MSZ003>006-009-014>017-022>024-029>033-037>039-200400-
NORTHEAST MISSISSIPPI

CITY           SKY/WX    TMP DP  RH WIND       PRES   REMARKS
BELMONT        FAIR      79  74  84 SW6       29.93R
COLUMBUS AFB   PTCLDY    79  72  78 S7        29.95R
CORINTH        FAIR      81  72  74 CALM      29.90S
GOLDN TRIANGLE PTCLDY    77  70  78 S7        29.96R
STARKVILLE     FAIR      79  72  78 CALM      29.95R
TUPELO         PTCLDY    82  73  74 CALM      29.92R
$$

MSZ040-058-200400-
CENTRAL MISSISSIPPI

CITY           SKY/WX    TMP DP  RH WIND       PRES   REMARKS
JACKSON INTL   PTCLDY    80  74  81 SE3       29.96R
JACKSON HAWKNS PTCLDY    82  74  76 CALM      29.96R
MERIDIAN KEY   MOCLDY    73  69  87 CALM      29.98R
MERIDIAN NAS   MOCLDY    75  68  78 CALM      29.97R
RAYMOND        FAIR      77  73  88 CALM      29.95R
VICKSBURG      MOCLDY    81  75  82 SW5       29.94R
$$

MSZ059>079-200400-
SOUTH MISSISSIPPI

CITY           SKY/WX    TMP DP  RH WIND       PRES   REMARKS
BROOKHAVEN     FAIR      81  75  83 SW3       29.99R
COLUMBIA       FOG       79  75  89 MISG      29.97R VSB 1/2
HATTIESBURG    MOCLDY    82  74  76 SE7       29.99R
MCCOMB         MOCLDY    80  73  79 W3        29.99R
NATCHEZ        PTCLDY    75  70  83 S5        29.98R
PINE BELT      MOCLDY    75  70  83 S6        30.00R
$$

MSZ080>082-200400-
COASTAL MISSISSIPPI

CITY           SKY/WX    TMP DP  RH WIND       PRES   REMARKS
BILOXI         CLEAR     82  71  68 CALM      30.00R
PASCAGOULA     CLEAR     81  76  84 CALM      30.00R
GULFPORT       CLEAR     80  74  81 CALM      29.99R
$$



USA.gov is the U.S. government's official web portal to all federal, state and local government web resources and services.